Weather History for Detroit, MI

Change the Weather History Date:

Thursday, April 11, 2013

  Actual Average Record
Temperature  
Mean Temperature 37 °F -  
Max Temperature 39 °F 54 °F 86 °F (1977)
Min Temperature 35 °F 36 °F 26 °F (1952)
Degree Days  
Heating Degree Days 28    
Moisture  
Dew Point 36 °F    
Average Humidity 96    
Maximum Humidity 100    
Minimum Humidity 93    
Precipitation  
Precipitation 1.14 in - - ()
Sea Level Pressure  
Sea Level Pressure 29.90 in    
Wind  
Wind Speed 12 mph (ENE)    
Max Wind Speed 20 mph    
Max Gust Speed 33 mph    
Visibility 7 miles    
Events Rain    
Averages and records for this station are not official NWS values.
T = Trace of Precipitation, MM = Missing Value Source: NWS Daily Summary

Daily Weather History Graph

Daily Weather History Graph

Search for Another Location

Airport:

Trip Planner

Search our weather history database for the weather conditions in past years. The results will help you decide how hot, cold, wet, or windy it might be!

Date:

Astronomy

Apr. 11, 2013 Rise Set
Actual Time 6:57 AM EDT 8:09 PM EDT
Civil Twilight 6:28 AM EDT 8:38 PM EDT
Nautical Twilight 5:53 AM EDT 9:13 PM EDT
Astronomical Twilight 5:17 AM EDT 9:49 PM EDT
Moon 7:26 AM EDT (4/11) 9:45 PM EDT (4/11)
Length of Visible Light 14h 10m
Length of Day
13h 12m
New Moon, 2% of the Moon is Illuminated
Apr 11
New Moon
Apr 18
First Quarter
Apr 25
Full
May 2
Last Quarter
May 9
New

Hourly Weather History & Observations

Time (EDT) Temp. Windchill Dew Point Humidity Pressure Visibility Wind Dir Wind Speed Gust Speed Precip Events Conditions
12:53 AM 37.9 °F 32.1 °F 37.9 °F 100% 29.99 in 3.0 mi NNE 8.1 mph - N/A   Overcast
1:53 AM 39.0 °F 32.3 °F 37.9 °F 96% 29.98 in 8.0 mi NE 10.4 mph - N/A   Overcast
2:11 AM 39.2 °F 32.5 °F 37.4 °F 93% 29.95 in 10.0 mi ENE 10.4 mph 18.4 mph N/A   Overcast
2:53 AM 39.9 °F 32.5 °F 37.9 °F 93% 29.97 in 10.0 mi NE 12.7 mph - N/A   Overcast
3:19 AM 39.2 °F 32.0 °F 37.4 °F 93% 29.94 in 6.0 mi ENE 11.5 mph 20.7 mph 0.05 in Rain Rain
3:42 AM 39.2 °F 33.0 °F 37.4 °F 93% 29.91 in 5.0 mi ENE 9.2 mph - 0.11 in Rain Rain
3:53 AM 39.0 °F 31.8 °F 37.9 °F 96% 29.91 in 8.0 mi ENE 11.5 mph - 0.12 in Rain Light Rain
4:03 AM 37.4 °F 30.3 °F 37.4 °F 100% 29.90 in 9.0 mi ENE 10.4 mph - 0.00 in Rain Light Rain
4:41 AM 37.4 °F 30.3 °F 37.4 °F 100% 29.92 in 4.0 mi ENE 10.4 mph - 0.07 in Rain Rain
4:48 AM 37.4 °F 30.3 °F 37.4 °F 100% 29.90 in 3.0 mi NNE 10.4 mph - 0.10 in Rain Rain
4:53 AM 37.9 °F 32.1 °F 37.0 °F 97% 29.93 in 4.0 mi NNE 8.1 mph - 0.11 in Rain Rain
5:32 AM 37.4 °F 28.9 °F 37.4 °F 100% 29.90 in 2.5 mi NE 13.8 mph 20.7 mph 0.23 in Rain Heavy Rain
5:43 AM 37.4 °F 29.8 °F 37.4 °F 100% 29.91 in 3.0 mi NE 11.5 mph - 0.32 in Rain Heavy Rain
5:53 AM 37.0 °F 34.5 °F 37.0 °F 100% 29.97 in 3.0 mi Variable 3.5 mph 19.6 mph 0.40 in Rain Heavy Rain
6:53 AM 37.0 °F 28.5 °F 37.0 °F 100% 29.93 in 8.0 mi ENE 13.8 mph 18.4 mph 0.15 in Rain Light Rain
7:53 AM 37.9 °F 31.5 °F 37.9 °F 100% 29.97 in 8.0 mi NE 9.2 mph 25.3 mph 0.06 in Rain Light Rain
8:53 AM 37.9 °F 28.9 °F 37.9 °F 100% 29.95 in 6.0 mi ENE 16.1 mph 23.0 mph 0.00 in Rain Light Rain
9:53 AM 37.0 °F 28.1 °F 36.0 °F 96% 29.97 in 10.0 mi ENE 15.0 mph 25.3 mph 0.00 in   Overcast
10:29 AM 35.6 °F 26.6 °F 33.8 °F 93% 29.94 in 6.0 mi ENE 13.8 mph 28.8 mph N/A   Overcast
10:38 AM 35.6 °F 25.2 °F 33.8 °F 93% 29.93 in 5.0 mi ENE 18.4 mph 25.3 mph N/A   Overcast
10:53 AM 36.0 °F 26.3 °F 35.1 °F 97% 29.96 in 6.0 mi ENE 16.1 mph 21.9 mph N/A   Overcast
11:53 AM 35.1 °F 24.8 °F 34.0 °F 96% 29.96 in 8.0 mi ENE 17.3 mph 25.3 mph 0.00 in Rain Light Rain
12:27 PM 35.6 °F 25.9 °F 33.8 °F 93% 29.92 in 10.0 mi ENE 16.1 mph 23.0 mph 0.00 in   Overcast
12:53 PM 35.6 °F 25.2 °F 33.8 °F 93% 29.91 in 9.0 mi East 18.4 mph 27.6 mph N/A   Overcast
1:53 PM 35.1 °F 24.1 °F 35.1 °F 100% 29.93 in 4.0 mi East 19.6 mph 27.6 mph 0.00 in   Overcast
2:53 PM 36.0 °F 27.1 °F 34.0 °F 93% 29.91 in 10.0 mi East 13.8 mph 24.2 mph N/A   Overcast
3:32 PM 35.6 °F 26.6 °F 35.6 °F 100% 29.87 in 9.0 mi East 13.8 mph - 0.02 in Rain Light Rain
3:53 PM 36.0 °F 26.7 °F 35.1 °F 97% 29.88 in 10.0 mi East 15.0 mph 21.9 mph 0.02 in   Overcast
4:53 PM 37.0 °F 27.4 °F 35.1 °F 93% 29.86 in 10.0 mi East 17.3 mph 23.0 mph N/A   Overcast
5:53 PM 37.0 °F 27.4 °F 35.1 °F 93% 29.84 in 10.0 mi East 17.3 mph 33.4 mph N/A   Overcast
6:53 PM 37.0 °F 28.1 °F 35.1 °F 93% 29.82 in 8.0 mi East 15.0 mph 27.6 mph 0.01 in Rain Light Rain
7:30 PM 37.4 °F 27.8 °F 35.6 °F 93% 29.78 in 8.0 mi East 17.3 mph 25.3 mph 0.01 in Rain Light Rain
7:53 PM 37.0 °F 27.0 °F 35.1 °F 93% 29.79 in 10.0 mi East 18.4 mph 24.2 mph 0.01 in Rain Light Rain
8:53 PM 36.0 °F 26.7 °F 35.1 °F 97% 29.78 in 8.0 mi East 15.0 mph 24.2 mph 0.02 in Rain Light Rain
9:53 PM 36.0 °F 27.1 °F 35.1 °F 97% 29.76 in 7.0 mi East 13.8 mph 23.0 mph 0.06 in Rain Light Rain
10:53 PM 36.0 °F 27.1 °F 35.1 °F 97% 29.73 in 6.0 mi East 13.8 mph - 0.09 in Rain Rain
11:53 PM 36.0 °F 26.0 °F 35.1 °F 97% 29.68 in 9.0 mi East 17.3 mph 25.3 mph 0.09 in Rain Light Rain